Location: Eaton Estates
(41.3089°N, 82.0057°W)
Time: 07:46:08
(UTC+00:00)

NOAA 18 - Pass Details

Date: 07 April 2023
Orbit: 838 x 860 km, 98.9° (Epoch: 03 June)

Event Time Altitude Azimuth Distance (km) Brightness Sun altitude
Exits shadow 04:34:41 17° 301° (WNW) 2,022 7.5 -40.3°
Drops below altitude 10° 04:36:35 10° 318° (NW) 2,504 8.2 -40.4°
Sets 04:39:30 0° 333° (NNW) 3,444 9.2 -40.6°
